Regional Weather Roundup
Issued by NWS Jackson, KY

Home | Current Version | Previous Version | Graphics & Text | Print | Product List | Glossary On
Versions: 1 2 3 4 5 6 7 8 9 10 11 12 13 14 15 16 17 18 19 20 21 22 23 24 25 26 27 28 29 30 31 32 33 34 35 36 37 38 39 40 41 42 43 44 45 46 47 48 49 50
000
ASUS43 KJKL 301410
RWRJKL

EAST KENTUCKY HOURLY WEATHER ROUNDUP
NATIONAL WEATHER SERVICE JACKSON KY
1000 AM EDT SUN AUG 30 2015

NOTE: "FAIR" INDICATES FEW OR NO CLOUDS BELOW 12,000 FEET WITH
NO SIGNIFICANT WEATHER AND/OR OBSTRUCTIONS TO VISIBILITY.

* THESE REPORTS ARE NOT UNDER NWS QUALITY CONTROL AND MAY NOT
  REPORT WEATHER SUCH AS PRECIPITATION AND FOG.

KYZ079-080-083-085-087-088-110-112-115-119-120-301500
...EASTERN KENTUCKY...

CITY           SKY/WX    TMP DP  RH WIND       PRES   REMARKS
JACKSON        PTSUNNY   70  63  78 CALM      30.18F
LONDON         CLOUDY    70  64  81 VRB3      30.18S
SOMERSET*      PTSUNNY   70  68  94 CALM      30.17S
MONTICELLO*    CLOUDY    73  68  84 CALM      30.19S
MIDDLESBORO*   CLOUDY    66  65  94 CALM      30.20S
HAZARD APT*    SUNNY     68  68 100 CALM      30.18F
BLACK MTN*       N/A     66  61  82 NE2         N/A
PIKEVILLE APT* SUNNY     68  64  88 S3        30.20S
BIG SANDY*     CLOUDY    72  65  79 CALM      30.19S
MOREHEAD APT*  MOSUNNY   75  66  73 VRB6      30.18S
$$

KYZ035-036-041-042-044-050-067-078-099-301500
...CENTRAL KENTUCKY...

CITY           SKY/WX    TMP DP  RH WIND       PRES   REMARKS
MT STERLING*   MOSUNNY   73  68  83 W3        30.17F
FLEMING/MASON* MOSUNNY   73  68  83 SW6       30.17R
DANVILLE*      CLOUDY    72  68  88 S5        30.17S
RICHMOND*      MOSUNNY   73  66  78 S3        30.16R
LEXINGTON      MOSUNNY   75  67  76 SW9       30.15S
FRANKFORT      LGT RAIN  73  68  84 SW6       30.13S
$$

KYZ091>093-OHZ055-061-077-WVZ005-015-034-035-042-301500
...SOUTHERN OHIO/WEST VIRGINIA...

CITY           SKY/WX    TMP DP  RH WIND       PRES   REMARKS
COVINGTON      PTSUNNY   73  68  84 S10       30.12S
COLUMBUS       CLOUDY    71  69  93 S6        30.11S
DAYTON         PTSUNNY   72  70  93 S7        30.12S
WILMINGTON     MOSUNNY   72  67  84 SW10      30.13R
HUNTINGTON     CLOUDY    72  65  78 S6        30.16S
CHARLESTON     PTSUNNY   71  66  84 CALM      30.17S
PINEVILLE*     CLOUDY    68  65  88 MISG      30.26F
BECKLEY        CLOUDY    70  59  68 CALM      30.25S
BLUEFIELD      CLOUDY    72  60  66 CALM      30.27S
$$

VAZ002-007-008-TNZ017-027-036-066-071-301500
...SOUTHWEST VIRGINIA/EAST TENNESSEE...

CITY           SKY/WX    TMP DP  RH WIND       PRES   REMARKS
WISE*          CLOUDY    70  57  64 SE3       30.26F
JONESVILLE*    CLOUDY    66  64  94 CALM      30.22S
ABINGDON*      CLOUDY    70  61  72 E5        30.23F
BRISTOL        CLOUDY    69  64  84 CALM      30.20F
KNOXVILLE      CLOUDY    69  66  90 NW5       30.15S
OAK RIDGE      CLOUDY    73  66  78 CALM      30.18R
CROSSVILLE     CLOUDY    72  63  73 S3        30.20R
NASHVILLE      CLOUDY    73  67  81 SE3       30.13S
$$

...KEY TO REMARKS...
VSB - VISIBILITY IN MILES
WCI - WIND CHILL INDEX
HX  - HEAT INDEX

$$


USA.gov is the U.S. government's official web portal to all federal, state and local government web resources and services.